This is the latest recevied weather packets stored in our database for station/object N2ZVN. If no packets are shown the sender has not sent any weather packets the latest 10 day(s).
| Time | Temp. | Humidity | Pressure | Rain* | Wind** | Luminosity | Snow |
|---|---|---|---|---|---|---|---|
| 1787930567 | 18.89° C | 65% | 1022.2 hPa | 0 mm | - | 713 W/m² | - |
| 1787930263 | 18.89° C | 66% | 1022.1 hPa | 0 mm | - | 703 W/m² | - |
| 1787929962 | 18.89° C | 67% | 1022.3 hPa | 0 mm | - | 696 W/m² | - |
| 1787929661 | 18.89° C | 68% | 1022.2 hPa | 0 mm | - | 686 W/m² | - |
| 1787929356 | 18.89° C | 68% | 1022.1 hPa | 0 mm | - | 677 W/m² | - |
| 1787929053 | 18.89° C | 72% | 1022.2 hPa | 0 mm | - | 667 W/m² | - |
| 1787928749 | 18.33° C | 70% | 1022.2 hPa | 0 mm | - | 655 W/m² | - |
| 1787928447 | 18.33° C | 70% | 1022.3 hPa | 0 mm | - | 646 W/m² | - |
| 1787928147 | 18.33° C | 74% | 1022 hPa | 0 mm | - | 634 W/m² | - |
| 1787927847 | 18.33° C | 70% | 1022.2 hPa | 0 mm | - | 623 W/m² | - |
| 1787927547 | 18.33° C | 73% | 1022.1 hPa | 0 mm | - | 611 W/m² | - |
| 1787927242 | 18.33° C | 73% | 1021.9 hPa | 0 mm | - | 598 W/m² | - |
| 1787926938 | 17.78° C | 74% | 1022 hPa | 0 mm | - | 238 W/m² | - |
| 1787926632 | 17.78° C | 76% | 1021.9 hPa | 0 mm | - | 584 W/m² | - |
| 1787926330 | 17.78° C | 75% | 1021.8 hPa | 0 mm | - | 560 W/m² | - |
| 1787926026 | 17.78° C | 78% | 1021.6 hPa | 0 mm | - | 470 W/m² | - |
| 1787925726 | 17.78° C | 76% | 1021.5 hPa | 0 mm | - | 528 W/m² | - |
| 1787925425 | 17.78° C | 77% | 1021.3 hPa | 0 mm | - | 514 W/m² | - |
| 1787925126 | 17.78° C | 77% | 1021.4 hPa | 0 mm | - | 497 W/m² | - |
| 1787924824 | 17.78° C | 77% | 1021.3 hPa | 0 mm | - | 479 W/m² | - |
| 1787924519 | 17.78° C | 77% | 1021.3 hPa | 0 mm | - | 467 W/m² | - |
| 1787924215 | 17.78° C | 78% | 1021.1 hPa | 0 mm | - | 468 W/m² | - |
| 1787923914 | 17.78° C | 77% | 1021.2 hPa | 0 mm | - | 444 W/m² | - |
| 1787923609 | 17.78° C | 80% | 1021.1 hPa | 0 mm | - | 437 W/m² | - |
| 1787923305 | 17.22° C | 80% | 1021.2 hPa | 0 mm | - | 409 W/m² | - |
* Rain latest hour (hover to see other rain measurements)
** Current wind speed in m/s (hover to see current wind gust speed)